Weather History for Caldwell, NJ

Change the Weather History Date:

Monday, April 22, 2013

  Actual Average Record
Temperature  
Mean Temperature 44 °F -  
Max Temperature 53 °F 65 °F 86 °F (1985)
Min Temperature 36 °F 41 °F 1 °F (2003)
Degree Days  
Heating Degree Days 21    
Moisture  
Dew Point 32 °F    
Average Humidity 63    
Maximum Humidity 86    
Minimum Humidity 43    
Precipitation  
Precipitation 0.00 in - - ()
Sea Level Pressure  
Sea Level Pressure 30.61 in    
Wind  
Wind Speed 5 mph (East)    
Max Wind Speed 15 mph    
Max Gust Speed 23 mph    
Visibility 10 miles    
Events      
Averages and records for this station are not official NWS values.
T = Trace of Precipitation, MM = Missing Value Source: NWS Daily Summary

Daily Weather History Graph

Daily Weather History Graph

Search for Another Location

Airport:

Trip Planner

Search our weather history database for the weather conditions in past years. The results will help you decide how hot, cold, wet, or windy it might be!

Date:

Astronomy

Apr. 22, 2013 Rise Set
Actual Time 6:07 AM EDT 7:44 PM EDT
Civil Twilight 5:38 AM EDT 8:13 PM EDT
Nautical Twilight 5:03 AM EDT 8:48 PM EDT
Astronomical Twilight 4:26 AM EDT 9:26 PM EDT
Moon 4:29 PM EDT (4/22) 4:02 AM EDT (4/22)
Length of Visible Light 14h 35m
Length of Day
13h 36m
Waxing Gibbous, 87% of the Moon is Illuminated
Apr 22
Waxing Gibbous
Apr 25
Full
May 2
Last Quarter
May 9
New
May 18
First Quarter

Hourly Weather History & Observations

Time (EDT) Temp. Windchill Dew Point Humidity Pressure Visibility Wind Dir Wind Speed Gust Speed Precip Events Conditions
12:53 AM 42.1 °F - 33.1 °F 70% 30.64 in 10.0 mi Calm Calm - N/A   Clear
1:53 AM 41.0 °F - 32.0 °F 70% 30.64 in 10.0 mi Calm Calm - N/A   Clear
2:53 AM 39.0 °F - 33.1 °F 79% 30.64 in 10.0 mi Calm Calm - N/A   Clear
3:53 AM 37.9 °F - 32.0 °F 79% 30.64 in 10.0 mi Calm Calm - N/A   Clear
4:53 AM 37.0 °F - 33.1 °F 86% 30.65 in 10.0 mi Calm Calm - N/A   Clear
5:53 AM 36.0 °F - 32.0 °F 86% 30.66 in 10.0 mi Calm Calm - N/A   Clear
6:53 AM 37.0 °F 34.5 °F 32.0 °F 82% 30.67 in 10.0 mi NE 3.5 mph - N/A   Clear
7:53 AM 43.0 °F 37.2 °F 34.0 °F 71% 30.66 in 10.0 mi East 10.4 mph - N/A   Clear
8:53 AM 45.0 °F 40.6 °F 30.0 °F 56% 30.68 in 10.0 mi ESE 8.1 mph 17.3 mph N/A   Clear
9:53 AM 46.0 °F 39.6 °F 32.0 °F 58% 30.68 in 10.0 mi East 15.0 mph - N/A   Mostly Cloudy
10:53 AM 48.0 °F - 32.0 °F 54% 30.67 in 10.0 mi East 10.4 mph 19.6 mph N/A   Mostly Cloudy
12:53 PM 50.0 °F - 32.0 °F 50% 30.64 in 10.0 mi ESE 9.2 mph 18.4 mph N/A   Overcast
1:53 PM 50.0 °F - 33.1 °F 52% 30.61 in 10.0 mi East 10.4 mph 18.4 mph N/A   Mostly Cloudy
2:53 PM 50.0 °F - 33.1 °F 52% 30.59 in 10.0 mi East 6.9 mph 17.3 mph N/A   Mostly Cloudy
3:53 PM 51.1 °F - 32.0 °F 48% 30.57 in 10.0 mi East 15.0 mph 23.0 mph N/A   Mostly Cloudy
4:53 PM 52.0 °F - 32.0 °F 47% 30.56 in 10.0 mi East 13.8 mph 20.7 mph N/A   Mostly Cloudy
5:53 PM 52.0 °F - 30.0 °F 43% 30.54 in 10.0 mi ESE 9.2 mph - N/A   Clear
6:53 PM 50.0 °F - 30.0 °F 46% 30.53 in 10.0 mi ESE 10.4 mph - N/A   Clear
7:53 PM 46.9 °F - 30.0 °F 52% 30.53 in 10.0 mi East 9.2 mph - N/A   Clear
8:53 PM 46.0 °F 41.9 °F 32.0 °F 58% 30.53 in 10.0 mi East 8.1 mph - N/A   Clear
9:53 PM 45.0 °F 40.1 °F 35.1 °F 68% 30.54 in 10.0 mi East 9.2 mph - N/A   Clear
10:53 PM 44.1 °F 38.6 °F 34.0 °F 68% 30.53 in 10.0 mi East 10.4 mph 18.4 mph N/A   Mostly Cloudy
11:53 PM 43.0 °F 37.2 °F 33.1 °F 68% 30.52 in 10.0 mi East 10.4 mph 20.7 mph N/A   Overcast